Meath Environmental Platform

Observations for Trim Market St

Time AQI Temp °C Hum % Pres Pa CO μg/m³ H₂S μg/m³ NO μg/m³ NO₂ μg/m³ O₃ μg/m³ SO₂ μg/m³ PM1 μg/m³ PM2.5 μg/m³ PM10 μg/m³
Tuesday 11 August 2026
21:24 3 24.6 44 64,678 0 12.18 1.13 48.66 51.52 0 3.56 5.31 5.97
21:23 3 24.7 44 64,783 0 8.12 1.12 29.48 54.44 0 3.56 5.84 8.31
21:21 3 24.8 44 64,823 0 12.15 1.11 48.36 47.42 0 2.14 5.34 5.96
21:19 3 24.8 44 64,946 0 11.51 1.12 33.93 54.1 0 2.85 5.35 5.96
21:14 3 25.1 43 65,192 0 11.48 1.09 33.81 53.95 0 2.14 4.87 5.95
21:11 3 25.2 42 65,347 0 12.28 1.08 34.59 57.84 0 2.14 5.42 6.73
21:06 3 25.5 41 65,544 0 11.76 1.05 33.51 56.58 0 0.71 3.88 4.34
21:05 3 25.5 41 65,552 0 12.7 1.06 43.11 52.45 0 2.14 4.94 5.13
21:04 3 25.6 41 65,600 0 12 1.04 44.08 50.47 0 0.71 4.94 5.13
21:03 3 25.6 41 65,627 0 11.34 1.04 38.05 52.21 0 2.85 5.48 5.93
21:02 3 25.7 41 65,631 0 12.21 1.02 41.97 53.25 0 2.14 5.49 5.93
21:01 3 25.7 41 65,665 0 11.57 1.02 33.22 56.49 0 2.85 5.49 6.73
21:00 3 25.8 40 65,678 0 13.25 1 39.75 50.25 0 3.56 6.03 6.72
20:59 3 25.8 40 65,698 0 14.9 1.01 44.65 48.93 0 1.43 4.46 4.9
20:57 3 25.9 40 65,760 0 9.52 0.99 37.35 51.15 0 2.85 5 5.11
20:54 3 26 39 65,801 0 12.55 0.95 61.01 39.51 0 3.56 6.08 6.72
20:51 3 26.2 39 65,811 0 10.97 0.95 55.96 43.12 0 2.14 5.05 5.09
20:45 3 26.4 38 65,888 0 11.39 0.97 37.76 61 0 2.85 6.68 8.34
20:44 3 26.5 38 65,902 0 9.66 0.95 35.22 56.08 0 2.14 5.09 5.6
20:40 3 26.7 38 65,939 0 9.73 0.92 34.2 58.24 0 2.14 5.65 6.71